Weather History for Springfield, VT

Change the Weather History Date:

Monday, June 3, 2013

  Actual Average Record
Temperature  
Mean Temperature 62 °F 60 °F  
Max Temperature 75 °F 72 °F 86 °F (2014)
Min Temperature 49 °F 48 °F 35 °F (2003)
Degree Days  
Heating Degree Days 2    
Cooling Degree Days 0 1  
Month to date cooling degree days 21 3  
Year to date cooling degree days 45 15  
Since 1 June cooling degree days 21 3  
Growing Degree Days 13 (Base 50)    
Moisture  
Dew Point 56 °F    
Average Humidity 72    
Maximum Humidity 100    
Minimum Humidity 44    
Precipitation  
Precipitation 0.00 in 0.16 in 0.90 in (2006)
Month to date precipitation 0.54 0.47  
Year to date precipitation 12.25 16.74  
Sea Level Pressure  
Sea Level Pressure 29.82 in    
Wind  
Wind Speed 5 mph (WSW)    
Max Wind Speed 15 mph    
Max Gust Speed 21 mph    
Visibility 9 miles    
Events      
T = Trace of Precipitation, MM = Missing Value Source: NWS Daily Summary

Daily Weather History Graph

Daily Weather History Graph

Search for Another Location

Airport:

Trip Planner

Search our weather history database for the weather conditions in past years. The results will help you decide how hot, cold, wet, or windy it might be!

Date:

Astronomy

Jun. 03, 2013 Rise Set
Actual Time 5:11 AM EDT 8:25 PM EDT
Civil Twilight 4:36 AM EDT 9:00 PM EDT
Nautical Twilight 3:51 AM EDT 9:45 PM EDT
Astronomical Twilight 2:56 AM EDT 10:40 PM EDT
Moon 2:15 AM EDT (6/3) 3:46 PM EDT (6/3)
Length of Visible Light 16h 23m
Length of Day
15h 13m
Waning Crescent, 22% of the Moon is Illuminated
Jun 3
Waning Crescent
Jun 8
New
Jun 16
First Quarter
Jun 23
Full
Jun 30
Last Quarter

Hourly Weather History & Observations

Time (EDT) Temp. Dew Point Humidity Pressure Visibility Wind Dir Wind Speed Gust Speed Precip Events Conditions
12:54 AM 64.9 °F 64.0 °F 97% 29.82 in 6.0 mi Calm Calm - N/A   Mostly Cloudy
1:54 AM 64.9 °F 64.0 °F 97% 29.81 in 9.0 mi Calm Calm - N/A   Overcast
2:54 AM 63.0 °F 61.0 °F 93% 29.81 in 10.0 mi Calm Calm - N/A   Overcast
3:42 AM 62.6 °F 60.8 °F 94% 29.81 in 9.0 mi Calm Calm - N/A   Mostly Cloudy
3:51 AM 60.8 °F 60.8 °F 100% 29.81 in 10.0 mi Calm Calm - N/A   Mostly Cloudy
3:54 AM 61.0 °F 60.1 °F 97% 29.81 in 10.0 mi NW 3.5 mph - N/A   Mostly Cloudy
4:18 AM 60.8 °F 60.8 °F 100% 29.81 in 9.0 mi Calm Calm - N/A   Scattered Clouds
4:54 AM 60.1 °F 59.0 °F 96% 29.81 in 9.0 mi Calm Calm - N/A   Scattered Clouds
5:04 AM 60.8 °F 59.0 °F 94% 29.81 in 9.0 mi Calm Calm - N/A   Mostly Cloudy
5:47 AM 60.8 °F 59.0 °F 94% 29.82 in 7.0 mi Calm Calm - N/A   Overcast
5:54 AM 60.1 °F 59.0 °F 96% 29.82 in 8.0 mi Calm Calm - N/A   Overcast
6:41 AM 60.8 °F 60.8 °F 100% 29.83 in 6.0 mi Calm Calm - N/A   Overcast
6:54 AM 61.0 °F 59.0 °F 93% 29.82 in 9.0 mi Calm Calm - N/A   Overcast
7:12 AM 60.8 °F 60.8 °F 100% 29.83 in 8.0 mi West 4.6 mph - N/A   Overcast
7:54 AM 62.1 °F 61.0 °F 96% 29.83 in 10.0 mi Calm Calm - N/A   Partly Cloudy
8:54 AM 66.9 °F 62.1 °F 84% 29.83 in 10.0 mi Variable 3.5 mph - N/A   Partly Cloudy
9:34 AM 68.0 °F 60.8 °F 78% 29.83 in 10.0 mi Calm Calm - N/A   Mostly Cloudy
9:54 AM 69.1 °F 61.0 °F 75% 29.83 in 10.0 mi East 3.5 mph - N/A   Mostly Cloudy
10:54 AM 71.1 °F 59.0 °F 66% 29.82 in 10.0 mi Variable 6.9 mph - N/A   Clear
11:54 AM 73.9 °F 55.9 °F 53% 29.81 in 10.0 mi WSW 12.7 mph 17.3 mph N/A   Clear
12:54 PM 73.9 °F 54.0 °F 50% 29.80 in 10.0 mi SW 9.2 mph - N/A   Clear
1:54 PM 73.0 °F 54.0 °F 51% 29.80 in 10.0 mi SW 10.4 mph 19.6 mph N/A   Clear
2:54 PM 73.0 °F 52.0 °F 48% 29.79 in 10.0 mi SW 12.7 mph 18.4 mph N/A   Clear
3:54 PM 73.0 °F 51.1 °F 46% 29.79 in 10.0 mi SSW 12.7 mph 18.4 mph N/A   Clear
4:54 PM 72.0 °F 48.9 °F 44% 29.80 in 10.0 mi SW 10.4 mph 16.1 mph N/A   Partly Cloudy
5:54 PM 69.1 °F 48.0 °F 47% 29.80 in 10.0 mi WSW 10.4 mph - N/A   Partly Cloudy
6:54 PM 66.0 °F 46.0 °F 48% 29.82 in 10.0 mi WSW 9.2 mph - N/A   Clear
7:54 PM 63.0 °F 46.0 °F 54% 29.83 in 10.0 mi SW 5.8 mph - N/A   Clear
8:54 PM 59.0 °F 48.0 °F 67% 29.84 in 10.0 mi West 5.8 mph - N/A   Clear
9:54 PM 55.9 °F 48.0 °F 75% 29.86 in 10.0 mi WNW 3.5 mph - N/A   Clear
10:54 PM 53.1 °F 48.0 °F 83% 29.87 in 10.0 mi Calm Calm - N/A   Clear
11:54 PM 52.0 °F 46.0 °F 80% 29.88 in 10.0 mi Calm Calm - N/A   Clear